Location: Prague
(50.0830°N, 14.4670°E)
Time: 06:59:29
(UTC+02:00)

DOVE 4 - Pass Details

Date: 11 April 2023
Orbit: 584 x 791 km, 97.8° (Epoch: 29 May)

Event Time Altitude Azimuth Distance (km) Brightness Sun altitude
Rises 22:59:48 0° 23° (NNE) 3,009 ? -25.6°
Reaches altitude 10° 23:02:28 10° 37° (NE) 2,054 ? -25.8°
Enters shadow 23:03:56 17° 53° (NE) 1,619 ? -26.0°
